Weather History for Mercury, NV

Change the Weather History Date:

Friday, August 16, 2013

  Actual Average Record
Temperature  
Mean Temperature 88 °F -  
Max Temperature 102 °F 97 °F 108 °F (2002)
Min Temperature 73 °F 69 °F 59 °F (1999)
Cooling Degree Days 22    
Growing Degree Days 38 (Base 50)    
Moisture  
Dew Point 40 °F    
Average Humidity 16    
Maximum Humidity 27    
Minimum Humidity 7    
Precipitation  
Precipitation 0.00 in - - ()
Sea Level Pressure  
Sea Level Pressure 29.82 in    
Wind  
Wind Speed 6 mph (SW)    
Max Wind Speed 16 mph    
Max Gust Speed 28 mph    
Visibility 10 miles    
Events      
Averages and records for this station are not official NWS values.
T = Trace of Precipitation, MM = Missing Value Source: NWS Daily Summary

Daily Weather History Graph

Daily Weather History Graph

Search for Another Location

Airport:

Trip Planner

Search our weather history database for the weather conditions in past years. The results will help you decide how hot, cold, wet, or windy it might be!

Date:

Astronomy

Aug. 16, 2013 Rise Set
Actual Time 6:02 AM PDT 7:33 PM PDT
Civil Twilight 5:35 AM PDT 8:00 PM PDT
Nautical Twilight 5:02 AM PDT 8:33 PM PDT
Astronomical Twilight 4:27 AM PDT 9:07 PM PDT
Moon 3:53 PM PDT (8/16) 1:12 AM PDT (8/16)
Length of Visible Light 14h 25m
Length of Day
13h 30m
Waxing Gibbous, 76% of the Moon is Illuminated
Aug 16
Waxing Gibbous
Aug 20
Full
Aug 28
Last Quarter
Sep 5
New
Sep 12
First Quarter

Hourly Weather History & Observations

Time (PDT) Temp. Dew Point Humidity Pressure Visibility Wind Dir Wind Speed Gust Speed Precip Events Conditions
12:52 AM 84.9 °F 35.1 °F 17% 29.81 in 10.0 mi Calm Calm - N/A   Clear
1:52 AM 82.0 °F 35.1 °F 18% 29.81 in 10.0 mi North 8.1 mph - N/A   Clear
2:52 AM 82.0 °F 36.0 °F 19% 29.82 in 10.0 mi Calm Calm - N/A   Clear
3:52 AM 78.1 °F 36.0 °F 22% 29.83 in 10.0 mi Calm Calm - N/A   Clear
4:52 AM 77.0 °F 37.9 °F 24% 29.84 in 10.0 mi NNE 8.1 mph - N/A   Clear
5:52 AM 75.0 °F 39.0 °F 27% 29.86 in 10.0 mi Calm Calm - N/A   Clear
6:52 AM 75.0 °F 39.0 °F 27% 29.88 in 10.0 mi Calm Calm - N/A   Clear
7:52 AM 82.0 °F 37.9 °F 21% 29.89 in 10.0 mi Calm Calm - N/A   Clear
8:52 AM 88.0 °F 39.0 °F 18% 29.88 in 10.0 mi Calm Calm - N/A   Clear
9:52 AM 93.9 °F 41.0 °F 16% 29.88 in 10.0 mi WSW 5.8 mph - N/A   Clear
10:52 AM 98.1 °F 43.0 °F 15% 29.87 in 10.0 mi SW 12.7 mph 19.6 mph N/A   Clear
11:52 AM 99.0 °F 44.1 °F 15% 29.86 in 10.0 mi SW 10.4 mph 18.4 mph N/A   Clear
12:52 PM 100.9 °F 44.1 °F 14% 29.83 in 10.0 mi SSW 16.1 mph 23.0 mph N/A   Clear
1:52 PM 100.9 °F 43.0 °F 14% 29.82 in 10.0 mi SSW 16.1 mph 27.6 mph N/A   Clear
2:52 PM 102.9 °F 41.0 °F 12% 29.80 in 10.0 mi South 12.7 mph 25.3 mph N/A   Clear
3:52 PM 102.0 °F 42.1 °F 13% 29.79 in 10.0 mi SW 12.7 mph 21.9 mph N/A   Clear
4:52 PM 100.9 °F 41.0 °F 13% 29.77 in 10.0 mi WSW 13.8 mph 19.6 mph N/A   Clear
5:52 PM 100.0 °F 39.0 °F 12% 29.77 in 10.0 mi SW 12.7 mph 21.9 mph N/A   Clear
6:52 PM 98.1 °F 39.0 °F 13% 29.77 in 10.0 mi SSW 15.0 mph - N/A   Clear
7:52 PM 95.0 °F 39.9 °F 15% 29.78 in 10.0 mi SSW 11.5 mph - N/A   Clear
8:52 PM 93.0 °F 39.9 °F 16% 29.80 in 10.0 mi South 4.6 mph - N/A   Clear
9:52 PM 91.0 °F 41.0 °F 17% 29.80 in 10.0 mi Variable 3.5 mph - N/A   Clear
10:52 PM 87.1 °F 41.0 °F 20% 29.81 in 10.0 mi NNE 3.5 mph - N/A   Clear
11:52 PM 86.0 °F 41.0 °F 20% 29.82 in 10.0 mi East 4.6 mph - N/A   Clear